Regional Weather Roundup
Issued by NWS Albany, NY

Home | Current Version | Previous Version | Text Only | Print | Product List | Glossary On
Versions: 1 2 3 4 5 6 7 8 9 10 11 12 13 14 15 16 17 18 19 20 21 22 23 24 25 26 27 28 29 30 31 32 33 34 35 36 37 38 39 40 41 42 43 44 45 46 47 48 49 50
000
ASUS41 KALY 230710
RWRALY

NEW YORK STATE HOURLY WEATHER ROUNDUP
NATIONAL WEATHER SERVICE ALBANY NY
300 AM EDT SAT AUG 23 2014

NOTE: "FAIR" INDICATES FEW OR NO CLOUDS BELOW 12,000 FEET WITH NO
SIGNIFICANT WEATHER AND/OR NO OBSTRUCTIONS TO VISIBILITY.

NYZ032-033-038>043-046>054-057>066-NYZ062>081-230800-
EAST


CITY           SKY/WX    TMP DP  RH WIND       PRES   REMARKS
ALBANY         CLOUDY    64  61  90 N3        30.09S
GLENS FALLS    NOT AVBL
POUGHKEEPSIE   CLOUDY    66  62  87 NE3       30.05F
NEWBURGH       CLOUDY    64  64 100 NE5       30.09S
MONTGOMERY     PTCLDY    64  61  90 NE5       30.06F
WHITE PLAINS   MOCLDY    66  62  87 NE5       30.05F
ISLIP          MOCLDY    65  60  84 E6        30.03F
NEW YORK CITY  PTCLDY    68  59  73 E10       30.04F
CENTRAL PARK   MOCLDY    68  58  70 VRB5      30.07F
$$

NYZ005>009-017-018-044>046-055-056-230800-
CENTRAL


CITY           SKY/WX    TMP DP  RH WIND       PRES   REMARKS
FULTON         CLOUDY    65  60  84 VRB6      30.03S
SYRACUSE       CLOUDY    65  61  87 E6        30.03S
ROME           CLOUDY    63  59  87 E8        30.08S
ELMIRA         CLOUDY    69  66  90 NE6       30.01R
BINGHAMTON     CLOUDY    62  59  90 SE10      30.05F
MONTICELLO     CLOUDY    61  61 100 E5        30.09F
$$

NYZ026>034-041>043-230800-
NORTH


CITY           SKY/WX    TMP DP  RH WIND       PRES   REMARKS
WATERTOWN      CLOUDY    65  60  84 CALM      30.04R
FORT DRUM      NOT AVBL
MASSENA        CLOUDY    63  61  93 NE5       30.09S
SARANAC LAKE   CLOUDY    57  56  96 CALM      30.10S
PLATTSBURGH    CLOUDY    61  60  97 CALM      30.11S
$$

NYZ001>004-010>016-019>021-230800-
WEST


CITY           SKY/WX    TMP DP  RH WIND       PRES   REMARKS
NIAGARA FALLS  FOG       66  65  96 NE8       30.00F VSB 1/4
BUFFALO        FOG       66  65  96 NE8       30.00F VSB 1/2
DUNKIRK        PTCLDY    66  64  93 E3        29.98F
JAMESTOWN      CLEAR     64  61  88 N3        30.01F
WELLSVILLE     CLOUDY    65  63  93 CALM      30.05S
ROCHESTER      CLOUDY    68  66  93 SE5       30.01S
PENN YAN       CLOUDY    68  66  93 CALM      30.02S FOG
$$

             KEY
       WCI = WIND CHILL INDEX
       VSB = VISIBILITY
       HX  = HEAT INDEX
$$


USA.gov is the U.S. government's official web portal to all federal, state and local government web resources and services.